Pope Field Airport, NC

12:44 AM EDT on March 24, 2017 (GMT -0400)
Pope Field Airport

Weather History for KPOB - December, 2012

Change the Weather History Date:

Tuesday, December 18, 2012

  Actual Average Record
Temperature  
Mean Temperature 52 °F -  
Max Temperature 64 °F 53 °F 76 °F (1984)
Min Temperature 35 °F 31 °F 19 °F (2007)
Degree Days  
Heating Degree Days 13    
Growing Degree Days 2 (Base 50)    
Moisture  
Dew Point 49 °F    
Average Humidity 79    
Maximum Humidity 96    
Minimum Humidity 37    
Precipitation  
Precipitation 0.00 in - - ()
Sea Level Pressure  
Sea Level Pressure 29.74 in    
Wind  
Wind Speed 12 mph (WSW)    
Max Wind Speed 17 mph    
Max Gust Speed 24 mph    
Visibility 10 miles    
Events      
Averages and records for this station are not official NWS values.
T = Trace of Precipitation, MM = Missing Value Source: NWS Daily Summary

Daily Weather History Graph

Daily Weather History Graph

Search for Another Location

Airport or City:

Trip Planner

Search our weather history database for the weather conditions in past years. The results will help you decide how hot, cold, wet, or windy it might be!

Date:

Astronomy

Dec. 18, 2012 Rise Set
Actual Time 7:19 AM EST 5:06 PM EST
Civil Twilight 6:50 AM EST 5:34 PM EST
Nautical Twilight 6:19 AM EST 6:06 PM EST
Astronomical Twilight 5:48 AM EST 6:37 PM EST
Moon 11:10 AM EST (12/18) 11:17 PM EST (12/18)
Length of Visible Light 10h 43m
Length of Day
9h 47m
Waxing Crescent, 34% of the Moon is Illuminated
Dec 18
Waxing Crescent
Dec 20
First Quarter
Dec 28
Full
Jan 4
Last Quarter
Jan 11
New

Hourly Weather History & Observations

Time (EST) Temp. Windchill Dew Point Humidity Pressure Visibility Wind Dir Wind Speed Gust Speed Precip Events Conditions
12:26 AM 59.0 °F - 55.4 °F 88% 29.69 in 10.0 mi SW 16.1 mph - N/A   Overcast
12:55 AM 59.0 °F - 56.5 °F 91% 29.69 in 10.0 mi WSW 15.0 mph - N/A   Overcast
1:55 AM 58.1 °F - 55.8 °F 92% 29.71 in 10.0 mi WSW 12.7 mph - N/A   Mostly Cloudy
2:04 AM 59.0 °F - 55.4 °F 88% 29.70 in 10.0 mi WSW 13.8 mph - N/A   Scattered Clouds
2:26 AM 59.0 °F - 55.4 °F 88% 29.71 in 10.0 mi WSW 11.5 mph - N/A   Mostly Cloudy
2:49 AM 57.2 °F - 53.6 °F 88% 29.70 in 10.0 mi WSW 11.5 mph - N/A   Scattered Clouds
2:55 AM 57.4 °F - 54.3 °F 90% 29.70 in 10.0 mi WSW 9.2 mph - N/A   Scattered Clouds
3:55 AM 52.9 °F - 51.8 °F 96% 29.69 in 10.0 mi WSW 5.8 mph - N/A   Clear
4:27 AM 55.4 °F - 53.6 °F 94% 29.69 in 10.0 mi WSW 10.4 mph - N/A   Mostly Cloudy
4:38 AM 55.4 °F - 53.6 °F 94% 29.70 in 10.0 mi WSW 11.5 mph - N/A   Mostly Cloudy
4:52 AM 55.4 °F - 53.6 °F 94% 29.70 in 10.0 mi WSW 10.4 mph - N/A   Mostly Cloudy
4:54 AM 55.4 °F - 53.6 °F 94% 29.70 in 10.0 mi WSW 11.5 mph - N/A   Mostly Cloudy
4:55 AM 55.9 °F - 54.3 °F 94% 29.70 in 10.0 mi WSW 10.4 mph - N/A   Overcast
4:59 AM 55.4 °F - 53.6 °F 94% 29.70 in 10.0 mi WSW 11.5 mph - N/A   Mostly Cloudy
5:38 AM 55.4 °F - 53.6 °F 94% 29.70 in 10.0 mi WSW 10.4 mph - N/A   Overcast
5:39 AM 55.4 °F - 53.6 °F 94% 29.70 in 10.0 mi WSW 11.5 mph - N/A   Overcast
5:48 AM 55.4 °F - 53.6 °F 94% 29.70 in 10.0 mi WSW 10.4 mph - N/A   Overcast
5:55 AM 56.1 °F - 54.1 °F 93% 29.70 in 10.0 mi WSW 10.4 mph - N/A   Overcast
5:57 AM 55.4 °F - 53.6 °F 94% 29.70 in 10.0 mi WSW 10.4 mph - N/A   Overcast
6:02 AM 55.4 °F - 53.6 °F 94% 29.70 in 10.0 mi WSW 11.5 mph - N/A   Overcast
6:06 AM 55.4 °F - 53.6 °F 94% 29.70 in 10.0 mi WSW 10.4 mph - N/A   Mostly Cloudy
6:48 AM 57.2 °F - 53.6 °F 88% 29.71 in 10.0 mi WSW 10.4 mph - N/A   Overcast
6:55 AM 56.7 °F - 54.5 °F 92% 29.71 in 10.0 mi WSW 9.2 mph - N/A   Overcast
7:55 AM 56.8 °F - 53.4 °F 88% 29.72 in 10.0 mi West 11.5 mph - N/A   Overcast
8:33 AM 57.2 °F - 53.6 °F 88% 29.73 in 10.0 mi WSW 12.7 mph - N/A   Scattered Clouds
8:55 AM 58.5 °F - 53.4 °F 83% 29.73 in 10.0 mi WSW 11.5 mph - N/A   Clear
10:31 AM 60.8 °F - 51.8 °F 72% 29.73 in 10.0 mi West 16.1 mph - N/A   Mostly Cloudy
10:36 AM 60.8 °F - 51.8 °F 72% 29.73 in 10.0 mi WSW 16.1 mph - N/A   Mostly Cloudy
10:37 AM 60.8 °F - 51.8 °F 72% 29.73 in 10.0 mi West 16.1 mph - N/A   Mostly Cloudy
10:54 AM 60.8 °F - 51.8 °F 72% 29.73 in 10.0 mi West 13.8 mph - N/A   Mostly Cloudy
10:55 AM 60.8 °F - 51.4 °F 71% 29.73 in 10.0 mi West 12.7 mph - N/A   Mostly Cloudy
11:27 AM 62.6 °F - 51.8 °F 68% 29.72 in 10.0 mi West 10.4 mph - N/A   Mostly Cloudy
11:33 AM 60.8 °F - 51.8 °F 72% 29.72 in 10.0 mi West 15.0 mph 19.6 mph N/A   Mostly Cloudy
11:34 AM 60.8 °F - 51.8 °F 72% 29.72 in 10.0 mi West 15.0 mph 19.6 mph N/A   Mostly Cloudy
11:35 AM 60.8 °F - 51.8 °F 72% 29.72 in 10.0 mi West 13.8 mph 19.6 mph N/A   Mostly Cloudy
11:36 AM 60.8 °F - 51.8 °F 72% 29.72 in 10.0 mi West 13.8 mph 19.6 mph N/A   Mostly Cloudy
11:55 AM 63.3 °F - 51.3 °F 65% 29.71 in 10.0 mi West 17.3 mph 23.0 mph N/A   Mostly Cloudy
12:08 PM 64.4 °F - 51.8 °F 64% 29.71 in 10.0 mi WNW 13.8 mph 23.0 mph N/A   Mostly Cloudy
12:55 PM 64.4 °F - 48.2 °F 56% 29.70 in 10.0 mi WNW 12.7 mph - N/A   Mostly Cloudy
1:55 PM 63.1 °F - 43.3 °F 48% 29.73 in 10.0 mi NW 11.5 mph 21.9 mph N/A   Scattered Clouds
2:55 PM 63.3 °F - 37.0 °F 38% 29.75 in 10.0 mi NW 12.7 mph 23.0 mph N/A   Clear
3:55 PM 61.2 °F - 35.1 °F 38% 29.78 in 10.0 mi NW 16.1 mph 24.2 mph N/A   Clear
4:55 PM 58.6 °F - 32.2 °F 37% 29.82 in 10.0 mi NW 12.7 mph 18.4 mph N/A   Clear
5:55 PM 54.0 °F - 32.4 °F 44% 29.84 in 10.0 mi WNW 5.8 mph - N/A   Clear
6:55 PM 48.9 °F - 35.4 °F 60% 29.87 in 10.0 mi West 4.6 mph - N/A   Clear
7:55 PM 45.3 °F 43.0 °F 37.0 °F 73% 29.90 in 10.0 mi WSW 4.6 mph - N/A   Clear
8:55 PM 46.0 °F 43.1 °F 34.9 °F 65% 29.92 in 10.0 mi WSW 5.8 mph - N/A   Clear
9:55 PM 41.5 °F - 36.3 °F 82% 29.94 in 10.0 mi Calm Calm - N/A   Clear
10:55 PM 40.6 °F - 35.2 °F 81% 29.93 in 10.0 mi Calm Calm - N/A   Clear
11:55 PM 35.6 °F - 34.2 °F 94% 29.93 in 10.0 mi Calm Calm - N/A   Clear